Cloud_Cover
0 0 8 32 44 44 36 36 48 56 64 56 64 80 92 92 92 92 92 92 92 92 92 92 92 64 36 36 68 76 76 68 56 56 56 68 24 0 0 0 8 8 0 0 48 80 92 92 88 88 80 64 48 64 76 76 88 92 92 92 92 92 92 92 80 68 64 56 44
0 0 20 48 48 48 36 24 68 80 68 56 76 88 92 92 92 92 92 92 92 92 88 92 88 64 36 36 44 48 48 64 80 88 76 44 12 0 0 0 8 0 0 0 36 64 80 92 88 88 92 88 56 56 76 80 88 92 92 92 92 92 92 88 76 64 64 56 44
0 8 20 48 56 48 44 48 76 80 68 64 88 92 92 92 92 92 92 92 92 92 92 92 68 44 36 48 48 44 48 92 92 92 76 20 0 0 0 0 0 0 0 0 12 44 76 92 68 76 92 92 68 68 76 80 88 92 92 92 92 92 88 80 68 64 56 56 36
0 0 12 36 44 44 48 80 76 68 68 88 92 92 92 92 92 92 92 92 92 92 92 92 92 64 44 64 36 36 64 92 92 92 80 36 8 0 0 0 0 0 12 32 32 56 76 88 76 68 68 76 76 80 88 80 92 92 92 92 92 92 88 68 64 56 48 48 36
0 0 8 20 20 56 88 76 68 64 68 92 92 92 92 92 92 92 92 92 92 92 92 92 92 92 88 88 36 44 76 92 92 88 64 24 8 0 0 0 0 8 20 32 36 64 80 68 80 88 92 88 92 92 92 80 92 92 92 92 92 92 88 80 64 48 48 44 36
0 0 0 12 24 44 56 64 68 68 76 92 92 92 92 88 80 80 88 92 92 92 92 92 92 92 92 92 36 44 76 92 92 64 24 12 0 0 0 0 0 12 24 36 36 64 92 92 80 88 92 92 92 92 92 92 92 92 92 92 92 92 88 88 56 48 44 36 32
8 0 20 80 64 56 64 92 80 76 76 92 92 92 92 92 76 76 80 80 92 92 92 92 80 88 92 92 48 32 24 44 64 48 32 24 20 8 0 0 0 20 48 64 44 64 88 92 92 92 92 92 92 92 92 92 92 92 92 92 92 92 88 80 64 48 36 36 24
24 20 32 56 56 68 88 92 88 88 92 92 92 92 92 92 92 92 92 92 92 92 92 92 88 92 92 92 68 36 20 24 24 56 76 44 64 36 0 0 0 20 56 92 68 68 88 92 92 88 80 92 92 92 92 92 92 92 92 92 92 80 68 68 56 44 36 32 20
44 36 36 64 80 88 88 92 92 64 36 64 80 92 92 92 92 92 92 92 80 88 92 92 92 92 92 92 92 48 8 8 0 24 68 92 92 80 48 8 8 32 64 92 88 92 92 92 92 92 88 80 88 92 92 92 92 92 92 92 92 76 56 56 48 44 36 24 20
20 8 8 44 44 48 56 76 68 56 48 68 88 92 92 92 92 92 92 76 92 92 92 92 92 88 88 92 92 48 8 0 0 0 32 92 92 92 88 76 76 80 88 92 92 92 92 92 92 92 92 88 88 92 92 92 92 92 92 92 92 76 48 48 44 36 32 24 20
0 0 12 48 64 68 80 92 92 92 92 92 92 92 92 92 92 92 88 68 88 92 92 92 92 92 92 92 92 56 12 0 0 0 20 80 88 76 68 88 80 88 92 92 92 92 92 92 92 92 88 88 92 92 92 92 92 92 92 92 92 76 48 44 36 32 24 24 24
12 20 44 80 92 92 92 92 92 92 92 92 92 88 88 92 92 92 92 92 92 92 92 88 92 92 92 92 80 44 8 0 0 0 12 32 56 64 68 92 92 92 92 92 92 92 92 92 92 88 88 88 92 92 92 92 88 92 92 92 92 88 68 36 32 32 24 24 32
44 64 80 92 92 92 92 92 92 92 92 92 92 88 80 92 92 92 92 92 92 92 88 88 92 92 92 88 48 20 0 0 0 0 0 20 44 76 92 92 92 92 92 92 92 92 92 92 92 92 92 92 92 92 92 88 80 88 88 88 92 76 56 36 32 32 32 36 44
56 76 92 92 92 92 92 92 92 92 92 92 92 92 88 92 92 92 92 92 92 80 76 88 92 92 92 76 48 32 12 0 0 0 8 36 68 88 92 92 92 88 88 92 92 92 92 92 92 92 92 92 92 92 92 88 80 80 80 76 76 64 48 36 36 36 44 48 56
76 80 92 92 92 92 92 92 92 92 92 92 92 92 92 92 92 92 92 92 92 88 76 88 92 92 80 56 36 20 8 0 0 0 20 68 88 92 92 92 92 80 80 92 92 92 92 92 92 92 92 92 92 92 92 88 88 80 80 68 68 56 48 44 36 48 64 64 64
92 88 88 88 88 88 80 68 80 76 76 92 92 92 92 92 80 88 92 92 92 92 88 92 92 80 56 32 12 0 0 0 0 8 32 92 92 92 92 92 92 88 88 92 92 92 92 92 92 92 92 92 92 92 88 88 88 88 80 68 76 68 56 48 56 64 68 64 64
76 64 64 64 64 64 56 36 56 48 48 88 68 76 88 92 80 80 88 92 92 92 92 92 88 76 48 12 0 0 0 12 20 36 56 92 92 88 80 88 80 88 92 92 92 92 92 92 92 92 92 92 92 92 92 92 92 88 88 80 80 76 64 64 76 68 64 64 56
64 48 48 48 48 44 44 44 48 56 64 76 56 56 68 88 88 80 80 88 88 80 80 80 68 64 44 24 36 44 48 56 68 80 88 80 76 68 64 76 88 92 92 92 92 92 92 92 92 92 92 92 92 92 92 92 92 88 80 80 80 68 64 80 76 64 56 48 44
48 48 56 48 56 56 56 44 56 68 76 64 64 56 56 64 68 64 64 64 68 56 44 36 68 64 56 76 88 92 88 64 76 80 80 76 64 56 68 80 92 92 92 92 92 92 92 100 92 92 92 92 92 92 92 92 92 88 80 76 68 68 76 88 88 80 68 44 36
36 48 48 64 68 64 56 56 68 80 80 68 76 76 68 44 36 32 32 24 32 24 12 12 76 88 80 92 92 88 80 56 76 80 68 48 64 76 80 92 92 92 92 92 92 92 92 92 92 92 92 92 92 92 92 92 92 88 80 68 64 76 92 92 92 92 88 76 68
76 76 76 76 68 64 68 76 76 88 92 80 76 56 44 24 24 20 20 12 12 8 12 56 80 92 92 92 88 76 68 80 80 68 64 76 88 92 92 92 92 92 92 92 92 92 92 92 92 92 92 92 92 92 92 92 92 88 80 76 80 92 92 92 92 88 80 80 80
92 92 88 80 64 64 68 76 76 64 48 44 44 36 24 24 20 20 12 8 8 0 20 88 92 92 92 92 64 68 88 92 88 88 88 92 92 92 92 92 92 92 92 92 92 92 92 92 92 92 92 92 92 92 92 92 92 92 92 92 92 92 92 88 88 76 68 68 76
88 92 92 88 56 44 48 44 44 32 24 32 32 32 24 24 24 20 12 8 8 32 68 92 92 92 80 56 68 88 92 92 92 92 92 92 92 92 92 92 92 92 92 92 92 92 92 92 92 92 92 92 92 92 92 92 92 92 92 92 92 88 80 80 76 76 68 68 68
76 88 92 92 48 32 32 24 20 24 32 32 24 20 20 12 12 12 12 20 48 76 92 92 92 80 64 48 80 92 92 92 92 92 92 92 92 92 92 92 92 92 92 92 92 92 92 92 92 92 92 92 92 92 92 92 92 92 92 88 88 80 80 80 76 76 76 76 76
80 92 92 92 76 56 48 48 64 64 56 48 48 48 48 48 56 64 68 80 88 92 92 92 92 80 76 88 92 92 92 92 92 92 92 92 92 92 92 92 92 92 92 92 92 92 92 92 92 92 92 92 92 92 92 92 88 88 88 80 88 88 88 92 88 88 88 88 92
88 76 48 64 88 92 88 76 88 88 80 80 88 88 92 92 92 92 92 92 92 92 92 92 92 92 92 92 92 92 92 92 92 92 92 92 92 92 92 92 92 92 92 92 92 92 92 92 92 92 92 92 92 92 92 88 88 88 88 88 88 88 88 92 92 92 92 92 92
32 24 32 68 88 92 92 80 80 88 88 64 56 76 92 92 92 92 92 92 92 92 92 92 92 92 92 92 92 92 92 92 92 92 92 92 92 92 92 92 92 92 92 92 92 92 92 92 92 92 92 92 92 92 88 88 88 88 88 88 88 88 88 88 92 92 92 92 92
44 44 44 64 76 68 68 80 80 68 56 48 80 92 92 92 92 92 92 92 92 92 92 92 92 92 92 92 92 92 92 92 92 92 92 92 92 92 92 92 92 92 92 92 92 92 92 92 92 92 92 92 92 92 92 88 88 88 88 88 88 88 88 88 92 92 92 92 92
56 76 92 92 80 64 44 24 76 76 56 68 88 92 92 92 92 92 92 92 92 92 92 92 92 92 92 92 92 92 92 92 92 92 92 92 92 92 92 92 92 92 92 92 92 92 92 92 92 92 92 92 92 88 80 80 80 88 88 88 92 92 92 92 92 92 92 92 92
92 92 88 48 32 24 24 12 76 92 92 92 92 92 92 92 92 92 92 92 92 92 92 92 92 92 92 92 92 92 92 92 92 92 92 92 92 92 92 92 92 92 92 92 92 92 92 92 92 92 92 88 80 80 80 80 80 88 92 92 92 92 92 92 92 92 92 92 92
56 56 56 12 12 24 32 32 76 92 92 92 92 92 92 92 92 92 92 92 92 92 92 92 92 92 92 92 92 92 92 92 92 92 92 92 92 92 92 92 92 92 92 92 92 92 92 92 92 88 80 80 80 80 88 88 92 92 92 92 92 92 92 92 92 92 92 92 92
8 20 36 68 68 68 76 92 92 92 92 92 92 92 92 92 92 92 92 92 92 92 92 92 92 92 92 92 92 92 92 92 92 92 92 92 92 92 92 92 92 92 92 92 92 88 92 92 88 80 80 80 80 88 88 92 92 92 92 92 92 92 92 92 92 92 92 92 92
24 44 68 80 92 92 92 92 92 92 92 92 92 92 92 92 92 92 92 92 92 92 92 92 92 92 92 92 92 92 92 92 92 92 92 92 92 92 92 92 92 92 92 92 92 92 88 88 88 80 76 80 80 88 88 92 92 92 92 92 92 92 92 92 92 92 92 92 92
56 68 80 92 92 92 92 92 92 92 92 92 92 92 92 92 92 92 92 92 92 92 92 92 92 100 100 100 92 92 92 92 92 92 92 92 92 92 92 92 92 92 92 92 92 92 92 88 80 80 76 76 80 88 92 92 92 92 92 92 92 92 92 92 92 92 92 92 92
68 80 92 92 92 92 92 92 92 92 92 92 92 92 92 92 92 92 92 92 92 92 92 92 92 100 100 100 92 92 92 92 92 92 92 92 92 92 92 92 92 92 92 92 92 92 92 92 92 88 80 88 88 92 92 92 92 92 92 92 92 92 92 92 92 92 92 92 88
92 92 92 92 92 92 92 92 92 92 92 92 92 92 92 92 92 92 92 92 92 92 92 92 92 100 100 100 92 92 92 92 92 92 92 92 92 92 92 92 92 92 92 92 92 92 92 92 92 92 92 92 92 92 92 92 92 92 92 92 92 92 92 92 92 92 92 92 88
92 92 92 92 92 92 92 92 92 92 92 92 92 92 92 92 92 92 92 92 92 92 92 92 92 100 92 92 92 92 92 92 92 92 92 92 92 92 92 92 92 92 92 92 92 92 92 92 92 92 92 92 92 92 92 92 92 92 92 92 92 92 92 92 92 92 92 88 92
92 92 92 92 92 92 92 92 92 92 92 92 92 92 92 92 92 92 92 92 92 92 92 92 92 100 92 92 92 92 92 92 92 92 92 92 92 92 92 92 92 92 92 92 92 92 92 92 92 92 92 92 92 92 92 92 92 92 92 92 92 92 92 92 92 92 92 88 92
92 92 92 92 92 92 92 92 92 92 92 92 92 92 92 92 92 92 92 92 92 92 92 92 92 92 92 92 92 92 92 92 92 92 92 92 92 92 92 92 92 92 92 92 92 92 92 92 92 92 92 92 92 92 92 92 92 92 92 92 92 92 92 92 88 88 88 88 92
92 92 92 92 92 92 92 92 92 92 92 92 92 92 92 92 92 92 92 92 92 92 92 92 92 92 92 92 92 92 92 92 92 92 92 92 92 92 92 92 92 92 92 92 92 92 92 92 92 92 92 92 92 92 92 92 92 92 92 92 92 92 92 92 92 88 80 88 80
92 92 92 92 92 92 92 92 92 92 92 92 92 92 92 92 92 92 92 92 92 92 92 92 92 92 92 92 92 92 92 92 92 92 92 92 92 92 92 92 92 92 92 92 92 92 92 92 92 92 92 92 92 92 92 92 92 92 92 92 92 92 92 92 88 88 88 88 80